TimeCDT,TemperatureF,Dew PointF,Humidity,Sea Level PressureIn,VisibilityMPH,Wind Direction,Wind SpeedMPH,Gust SpeedMPH,PrecipitationIn,Events,Conditions,WindDirDegrees,DateUTC
12:15 AM,32.0,32.0,100,29.22,2.5,NE,11.5,-,0.01,,Overcast,40,2013-04-19 05:15:00
12:35 AM,32.0,32.0,100,29.20,2.5,NNE,9.2,-,0.02,,Overcast,30,2013-04-19 05:35:00
12:55 AM,32.0,32.0,100,29.19,4.0,NE,8.1,-,0.03,,Overcast,50,2013-04-19 05:55:00
1:15 AM,32.0,32.0,100,29.18,4.0,NE,8.1,-,0.01,,Overcast,50,2013-04-19 06:15:00
1:35 AM,32.0,32.0,100,29.16,4.0,NE,9.2,-,0.02,,Overcast,50,2013-04-19 06:35:00
1:55 AM,32.0,32.0,100,29.16,4.0,NE,8.1,-,0.02,,Overcast,40,2013-04-19 06:55:00
2:15 AM,32.0,32.0,100,29.15,2.5,NNE,6.9,-,0.01,,Overcast,20,2013-04-19 07:15:00
2:35 AM,32.0,32.0,100,29.14,1.5,NNE,6.9,-,0.02,Snow,Light Snow,30,2013-04-19 07:35:00
2:55 AM,32.0,32.0,100,29.13,1.8,NNE,5.8,-,0.02,Snow,Light Snow,30,2013-04-19 07:55:00
3:15 AM,32.0,32.0,100,29.12,2.5,North,4.6,-,0.01,Snow,Light Snow,10,2013-04-19 08:15:00
3:35 AM,32.0,32.0,100,29.12,2.5,North,3.5,-,0.02,Snow,Light Snow,360,2013-04-19 08:35:00
3:55 AM,32.0,32.0,100,29.12,2.0,North,4.6,-,0.02,Snow,Light Snow,350,2013-04-19 08:55:00
4:15 AM,32.0,32.0,100,29.11,1.2,North,6.9,-,0.01,Snow,Light Snow,350,2013-04-19 09:15:00
4:35 AM,30.2,30.2,100,29.11,1.2,North,9.2,-,0.02,Snow,Light Snow,350,2013-04-19 09:35:00
4:55 AM,30.2,30.2,100,29.10,2.0,NNW,9.2,-,0.02,Snow,Light Snow,340,2013-04-19 09:55:00
5:15 AM,30.2,30.2,100,29.10,2.0,North,11.5,-,N/A,Snow,Light Snow,350,2013-04-19 10:15:00
5:35 AM,30.2,30.2,100,29.10,2.0,NNW,11.5,-,0.01,Snow,Light Snow,340,2013-04-19 10:35:00
5:55 AM,30.2,30.2,100,29.11,1.2,NNW,11.5,-,0.01,Snow,Light Snow,330,2013-04-19 10:55:00
6:15 AM,30.2,28.4,93,29.12,1.5,NNW,12.7,18.4,N/A,Snow,Light Snow,330,2013-04-19 11:15:00
6:35 AM,28.4,28.4,100,29.12,1.5,NNW,13.8,19.6,N/A,Snow,Light Snow,340,2013-04-19 11:35:00
6:55 AM,28.4,28.4,100,29.14,1.5,NNW,13.8,20.7,N/A,Snow,Light Snow,340,2013-04-19 11:55:00
7:15 AM,28.4,28.4,100,29.14,1.2,NNW,15.0,23.0,N/A,Snow,Light Snow,330,2013-04-19 12:15:00
7:35 AM,28.4,28.4,100,29.14,1.0,NNW,16.1,24.2,N/A,Snow,Light Snow,340,2013-04-19 12:35:00
7:55 AM,28.4,26.6,93,29.15,1.0,NNW,18.4,23.0,N/A,Snow,Light Snow,330,2013-04-19 12:55:00
8:15 AM,28.4,26.6,93,29.16,0.8,NNW,16.1,25.3,N/A,Snow,Light Snow,340,2013-04-19 13:15:00
8:55 AM,26.6,24.8,93,29.18,1.8,NNW,18.4,24.2,N/A,Snow,Light Snow,330,2013-04-19 13:55:00
9:15 AM,26.6,24.8,93,29.19,1.8,NW,18.4,23.0,N/A,Snow,Light Snow,320,2013-04-19 14:15:00
9:35 AM,26.6,23.0,86,29.20,1.5,NNW,19.6,28.8,N/A,Snow,Light Snow,340,2013-04-19 14:35:00
9:55 AM,26.6,23.0,86,29.21,1.8,NNW,20.7,26.5,N/A,Snow,Light Snow,330,2013-04-19 14:55:00
10:35 AM,26.6,24.8,93,29.24,0.8,NW,21.9,26.5,N/A,Snow,Light Snow,320,2013-04-19 15:35:00
10:55 AM,28.4,21.2,74,29.25,1.8,NNW,18.4,26.5,N/A,Snow,Light Snow,330,2013-04-19 15:55:00
11:15 AM,26.6,21.2,80,29.26,1.5,NNW,18.4,27.6,N/A,Snow,Light Snow,340,2013-04-19 16:15:00
11:35 AM,28.4,21.2,74,29.27,2.0,NW,17.3,25.3,N/A,Snow,Light Snow,320,2013-04-19 16:35:00
11:55 AM,26.6,19.4,74,29.29,1.8,NNW,21.9,28.8,N/A,Snow,Light Snow,330,2013-04-19 16:55:00
12:15 PM,28.4,19.4,69,29.30,3.0,NW,21.9,34.5,N/A,Snow,Light Snow,320,2013-04-19 17:15:00
12:35 PM,26.6,19.4,74,29.31,3.0,NW,21.9,27.6,N/A,Snow,Light Snow,320,2013-04-19 17:35:00
12:55 PM,26.6,19.4,74,29.33,2.5,NNW,23.0,34.5,N/A,,Haze,330,2013-04-19 17:55:00
1:15 PM,28.4,19.4,69,29.35,3.0,NW,18.4,28.8,N/A,Snow,Light Snow,320,2013-04-19 18:15:00
1:35 PM,26.6,19.4,74,29.37,4.0,NW,24.2,32.2,N/A,Snow,Light Snow,320,2013-04-19 18:35:00
1:55 PM,26.6,17.6,69,29.38,2.5,NNW,18.4,33.4,N/A,,Haze,330,2013-04-19 18:55:00
2:15 PM,26.6,19.4,74,29.40,1.5,NNW,20.7,24.2,N/A,Snow,Light Snow,330,2013-04-19 19:15:00
2:35 PM,23.0,17.6,80,29.42,0.8,NNW,20.7,33.4,N/A,Snow,Light Snow,330,2013-04-19 19:35:00
2:55 PM,24.8,17.6,74,29.43,2.5,NNW,18.4,24.2,N/A,Snow,Light Snow,340,2013-04-19 19:55:00
3:15 PM,23.0,19.4,86,29.44,0.8,NNW,16.1,23.0,N/A,Snow,Light Snow,330,2013-04-19 20:15:00
3:35 PM,23.0,17.6,80,29.46,1.0,NNW,18.4,25.3,N/A,Snow,Light Snow,340,2013-04-19 20:35:00
3:55 PM,23.0,19.4,86,29.48,0.5,NNW,13.8,26.5,N/A,Snow,Light Snow,340,2013-04-19 20:55:00
4:15 PM,23.0,19.4,86,29.50,0.5,NNW,16.1,23.0,N/A,Snow,Light Snow,340,2013-04-19 21:15:00
4:35 PM,23.0,17.6,80,29.51,2.0,NNW,17.3,23.0,N/A,Snow,Light Snow,330,2013-04-19 21:35:00
4:55 PM,23.0,17.6,80,29.53,4.0,NNW,15.0,24.2,N/A,Snow,Light Snow,330,2013-04-19 21:55:00
5:15 PM,23.0,17.6,80,29.55,4.0,NNW,19.6,24.2,N/A,Snow,Light Snow,330,2013-04-19 22:15:00
5:35 PM,23.0,17.6,80,29.57,2.0,NNW,15.0,23.0,N/A,Snow,Light Snow,340,2013-04-19 22:35:00
5:55 PM,23.0,17.6,80,29.58,2.0,NNW,21.9,26.5,N/A,Snow,Light Snow,330,2013-04-19 22:55:00
6:15 PM,23.0,17.6,80,29.60,2.5,NNW,21.9,28.8,N/A,,Haze,330,2013-04-19 23:15:00
6:35 PM,23.0,17.6,80,29.62,3.0,NW,19.6,25.3,N/A,Snow,Light Snow,320,2013-04-19 23:35:00
6:55 PM,23.0,17.6,80,29.64,1.8,NNW,17.3,25.3,N/A,Snow,Light Snow,330,2013-04-19 23:55:00
7:15 PM,21.2,17.6,86,29.65,0.8,North,13.8,25.3,N/A,Snow,Light Snow,350,2013-04-20 00:15:00
7:55 PM,21.2,17.6,86,29.68,1.8,NNW,10.4,-,N/A,Snow,Light Snow,330,2013-04-20 00:55:00
8:15 PM,21.2,17.6,86,29.70,5.0,NNW,12.7,21.9,N/A,Snow,Light Snow,330,2013-04-20 01:15:00
8:35 PM,21.2,17.6,86,29.71,4.0,NNW,15.0,21.9,N/A,Snow,Light Snow,340,2013-04-20 01:35:00
8:55 PM,21.2,17.6,86,29.72,1.5,NW,9.2,16.1,N/A,Snow,Snow,320,2013-04-20 01:55:00
9:15 PM,21.2,17.6,86,29.74,5.0,NNW,15.0,20.7,N/A,Snow,Light Snow,330,2013-04-20 02:15:00
9:35 PM,21.2,17.6,86,29.75,4.0,NW,15.0,20.7,N/A,Snow,Light Snow,320,2013-04-20 02:35:00
9:55 PM,21.2,17.6,86,29.76,3.0,NW,15.0,23.0,N/A,Snow,Light Snow,320,2013-04-20 02:55:00
10:15 PM,21.2,15.8,80,29.77,5.0,NNW,12.7,20.7,N/A,Snow,Light Snow,330,2013-04-20 03:15:00
10:35 PM,21.2,15.8,80,29.78,7.0,NNW,11.5,18.4,N/A,Snow,Light Snow,330,2013-04-20 03:35:00
10:55 PM,21.2,15.8,80,29.79,7.0,NW,9.2,-,N/A,Snow,Light Snow,320,2013-04-20 03:55:00
11:15 PM,21.2,17.6,86,29.80,5.0,NW,11.5,-,N/A,Snow,Light Snow,320,2013-04-20 04:15:00
11:35 PM,21.2,15.8,80,29.81,10.0,NNW,12.7,19.6,N/A,,Overcast,330,2013-04-20 04:35:00
11:55 PM,21.2,14.0,74,29.82,10.0,NW,13.8,20.7,N/A,,Overcast,320,2013-04-20 04:55:00